STARLINK-5022 (53903 NORAD) Tracking and Keplerian Element Data

This shows tracking and keplerian element data for the satellite.

Feedback or suggestion? Click here.




ElementValue
Catalog53903
NameSTARLINK-5022
Epoch Orbit130
Epoch Day324.91667824
Epoch Year2022
RAAN333.3856
Inclination53.2173
Eccentricity0.0001359
Argument of Perigee48.0507
Mean Anonmoly280.8864
Mean Motion15.37248429
Decay Rate-0.01136714
L11 53903U 22119T 22324.91667824 -.01136714 00000+0 -33626-1 0 9996
L22 53903 53.2173 333.3856 0001359 48.0507 280.8864 15.37248429 1301



Live tracking and technical data element details for STARLINK-5022 (NORAD 53903). STARLINK-5022 can be tracked NOW for your location showing map with azimuth and elevation plus other details from your city location.







IsCatalogInMostPopularTable: catalog: 53903, numindb: 1
Update: records affected: 1



GetName: 53903 STARLINK-5022

Hit Count: updated at: Fri, 09 Dec 2022 19:53:27 GMT